Location: Ottawa (KS)
(38.6160°N, 95.2680°W)
Time: 02:56:50
(UTC-06:00)

Tiangong 2 - Visible Passes

Search period start: 23 January 2019 00:00
Search period end: 02 February 2019 00:00
Orbit: 380 x 392 km, 42.8° (Epoch: 23 January)

Date Brightness Start Highest point End Pass type
(mag) Time Alt. Az. Time Alt. Az. Time Alt. Az.
23 Jan 3.8 05:17:41 17° ENE 05:17:41 17° ENE 05:18:40 10° ENE visible
23 Jan 1.5 06:49:56 12° WNW 06:52:46 55° NNE 06:55:55 10° E visible
24 Jan 1.8 05:53:39 42° N 05:53:39 42° N 05:56:44 10° E visible
25 Jan 4.6 04:57:22 11° ENE 04:57:22 11° ENE 04:57:31 10° ENE visible
25 Jan 1.0 06:29:37 22° WNW 06:31:31 84° NNE 06:34:43 10° ESE visible
26 Jan 2.5 05:33:22 38° ENE 05:33:22 38° ENE 05:35:36 10° E visible
27 Jan 1.3 06:09:24 41° W 06:10:11 56° SSW 06:13:19 10° SE visible
28 Jan 3.8 05:13:14 20° ESE 05:13:14 20° ESE 05:14:21 10° ESE visible
28 Jan 3.1 06:45:30 10° W 06:47:38 17° SW 06:49:51 10° S visible
29 Jan 2.5 05:49:24 28° S 05:49:24 28° S 05:51:36 10° SSE visible
